Location: ??????
(55.6500°N, 37.8000°E)
Time: 19:01:36
(UTC+00:00)

Cosmos 2266 Rocket - Pass Details

Date: 14 April 2024
Orbit: 935 x 1006 km, 82.9° (Epoch: 26 May)

Event Time Altitude Azimuth Distance (km) Brightness Sun altitude
Rises 01:43:33 0° 181° (S) 3,613 6.7 -6.3°
Reaches altitude 10° 01:46:03 10° 179° (S) 2,664 6.1 -6.0°
Maximum altitude 01:52:05 71° 97° (E) 994 4.3 -5.3°
Drops below altitude 10° 01:58:07 10° 14° (NNE) 2,660 6.9 -4.5°
Sets 02:00:36 0° 13° (NNE) 3,608 7.5 -4.2°
